Flag for U.S.A. Weather past 2 weeks in Vevay, Indiana, U.S.A.

Now
51 °F

Clear.


Feels Like: 51 °F
Forecast: 47 / 76 °F
Wind: No wind

Location: Cincinnati / Northern Kentucky International Airport

Current Time: Sep 15, 2014 at 5:31:41 AM

Latest Report: Sep 15, 2014 at 4:52 AM


Visibility: 10 mi

Pressure: 30.19 "Hg

Humidity: 86%

Dew point: 47 °F

Location of VevayLocation

Historic Weather in Vevay — Graph

°F

Vevay temperature yesterday

Maximum temperature yesterday: 70 °F (at 4:52 PM)
Minimum temperature yesterday: 50 °F (at 1:52 AM)
Average temperature yesterday: 59 °F

Past Weeks' High & Low Weather Summary

 TemperatureHumidityPressure
High89 °F (Sep 5, 3:52 PM)97% (Sep 2, 9:52 PM)30.31 "Hg (Sep 2, 9:52 PM)
Low50 °F (Sep 14, 1:52 AM)36% (Sep 7, 5:52 PM)29.77 "Hg (Sep 10, 7:52 PM)
Average70 °F74%30.05 "Hg
* Reported Aug 31 3:52 AM — Sep 15 3:52 AM, Vevay, Weather by CustomWeather, © 2014

Note: Actual official high and low records may vary slightly from our data, if they occured in-between our weather recording intervals... More about our weather records

Advertising

Vevay weather history for previous 24 hours

 ConditionsComfort  
Time TempWeatherWind HumidityBarometerVisibility
3:52 AM
Sep 15
50 °FClear.No wind89%30.18 "Hg7 mi
2:52 AM52 °FClear.No wind86%30.19 "Hg10 mi
1:52 AM52 °FClear.No wind83%30.20 "Hg10 mi
12:52 AM52 °FClear.No wind89%30.20 "Hg10 mi
11:52 PM
Sep 14
55 °FClear.No wind77%30.20 "Hg10 mi
10:52 PM54 °FClear.No wind80%30.20 "Hg10 mi
9:52 PM57 °FClear.No wind78%30.21 "Hg10 mi
8:52 PM60 °FClear.No wind65%30.20 "Hg10 mi
7:52 PM65 °FSunny.No wind51%30.18 "Hg10 mi
6:52 PM68 °FSunny.5 mph45%30.19 "Hg10 mi
5:52 PM70 °FSunny.No wind42%30.19 "Hg10 mi
4:52 PM70 °FPassing clouds.5 mph42%30.20 "Hg10 mi
3:52 PM69 °FPassing clouds.3 mph44%30.21 "Hg10 mi
2:52 PM69 °FPassing clouds.3 mph44%30.24 "Hg10 mi
1:52 PM67 °FPassing clouds.No wind45%30.26 "Hg10 mi
12:52 PM66 °FScattered clouds.3 mph49%30.28 "Hg10 mi
11:52 AM64 °FBroken clouds.10 mph50%30.29 "Hg10 mi
10:52 AM60 °FBroken clouds.7 mph65%30.30 "Hg10 mi
9:52 AM57 °FBroken clouds.7 mph72%30.31 "Hg10 mi
8:52 AM53 °FScattered clouds.7 mph80%30.31 "Hg10 mi
7:52 AM50 °FPassing clouds.3 mph83%30.31 "Hg10 mi
6:52 AM50 °FPassing clouds.5 mph83%30.28 "Hg10 mi
5:52 AM50 °FPassing clouds.6 mph83%30.27 "Hg10 mi
Weather by CustomWeather, © 2014

See weather overviewHow to use our weather pages